Regional Weather Roundup
Issued by NWS Upton, NY

Current Version | Previous Version | Text Only | Print | Product List | Glossary Off
Versions: 1 2 3 4 5 6 7 8 9 10 11 12 13 14 15 16 17 18 19 20 21 22 23 24 25 26 27 28 29 30 31 32 33 34 35 36 37 38 39 40 41 42 43 44 45 46 47 48 49 50
000 ASUS41 KOKX 230309 RWROKX REGIONAL WEATHER ROUNDUP NATIONAL WEATHER SERVICE NEW YORK NY 1100 PM EDT SAT JUL 22 2017 NOTE: "FAIR" INDICATES FEW OR NO CLOUDS BELOW 12,000 FEET WITH NO SIGNIFICANT WEATHER AND/OR OBSTRUCTIONS TO VISIBILITY. NYZ071-072-176-178-NJZ106-104-230400- NEW YORK CITY METRO AREA CITY SKY/WX TMP DP RH WIND PRES REMARKS Central Park CLOUDY 78 71 79 CALM 29.78F Bronx Bot Gard N/A 77 72 83 S2 29.78S LaGuardia APRT CLOUDY 79 75 87 S6 29.75F Kennedy INTL LGT RAIN 76 74 93 S7 29.78F Breezy Point N/A 72 N/A N/A S7 N/A Newark/Liberty HVY RAIN 76 73 91 S6 29.76F FOG Teterboro LGT RAIN 77 73 87 W3 29.75 $$ NYZ177-179-078>081-230400- LONG ISLAND NEW YORK CITY SKY/WX TMP DP RH WIND PRES REMARKS Jones Beach N/A 73 N/A N/A W3 N/A Matinecock PT N/A 75 N/A N/A E3 N/A Farmingdale CLOUDY 77 72 84 SE5 29.77F MacArthur/ISP CLOUDY 78 69 73 S5 29.77F Shirley CLOUDY 75 73 93 CALM 29.78F Mt Sinai Harb N/A N/A N/A N/A S6 N/A Westhampton CLOUDY 73 70 90 CALM 29.79S East Hampton FAIR 70 67 92 CALM 29.79S Montauk N/A 75 68 78 CALM 29.80F $$ NYZ052-065-067-230400- HUDSON VALLEY CITY SKY/WX TMP DP RH WIND PRES REMARKS White Plains NOT AVBL Larchmont Harb N/A 77 N/A N/A NE5 N/A Croton O-T Hud N/A 75 N/A N/A E3 N/A Newburgh CLOUDY 73 66 78 N6 29.81R Montgomery LGT RAIN 73 68 84 N5 29.79S Poughkeepsie CLOUDY 73 64 73 CALM 29.77S Albany CLOUDY 70 65 84 SW3 29.81 $$ NJZ001-105-106-008-010-013-015-019>022-104-230400- NEW JERSEY CITY SKY/WX TMP DP RH WIND PRES REMARKS Newark/Liberty HVY RAIN 76 73 91 S6 29.76F FOG Teterboro LGT RAIN 77 73 87 W3 29.75 Caldwell LGT RAIN 76 73 91 CALM 29.77F Somerville RAIN 74 73 97 NE3 29.75S FOG Linden RAIN 75 72 91 CALM 29.75F Perth Amboy N/A 73 N/A N/A E12 N/A Sussex CLOUDY 73 72 96 N3 29.78F Andover N/A 71 68 90 CALM 29.78F Trenton LGT RAIN 75 74 96 S7 29.73F FOG Millville CLOUDY 77 75 93 SW3 29.77F Atlantic City CLOUDY 81 72 74 SW8 29.76F Wrightstown NOT AVBL Toms River LGT RAIN 76 75 97 S6 29.75F FOG Belmar CLOUDY 74 72 93 E3 29.77F $$ PAZ047>061-062-071-230400- EASTERN PENNSYLVANIA CITY SKY/WX TMP DP RH WIND PRES REMARKS Philadelphia CLOUDY 82 70 66 SW13 29.75F Allentown CLOUDY 71 68 90 W5 29.78 Scranton CLOUDY 71 70 96 E3 29.81R $$ CTZ002-004>006-009-010-012-RIZ004-006-007-MAZ004-011-015-230400- SOUTHERN NEW ENGLAND IN CT CITY SKY/WX TMP DP RH WIND PRES REMARKS Bradley INTL CLOUDY 72 68 87 NW6 29.79 Hartford LGT RAIN 74 71 91 CALM 29.77F Danbury CLOUDY 73 68 84 CALM 29.80F Wtrbury/Oxford CLOUDY 73 64 73 CALM 29.81S Bridgeport CLOUDY 76 70 82 E3 29.77F Meriden CLOUDY 73 68 84 S3 29.79R New Haven CLOUDY 75 67 76 E3 29.79S Chester FAIR 73 64 73 CALM 29.81R Groton CLOUDY 73 65 75 CALM 29.78F Wilimantic CLOUDY 74 70 87 CALM 29.79F IN RI CITY SKY/WX TMP DP RH WIND PRES REMARKS Providence CLOUDY 74 65 73 SW6 29.80 Block Island CLOUDY 74 70 87 S5 29.80S Westerly CLOUDY 73 68 84 CALM 29.80S IN MA CITY SKY/WX TMP DP RH WIND PRES REMARKS Boston CLOUDY 74 65 73 S3 29.78R Worcester CLOUDY 72 62 71 W7 29.83R Westfield CLOUDY 70 66 87 N7 29.80R Provincetown MOCLDY 72 67 84 SW10 29.79R Nantucket CLOUDY 66 65 96 S5 29.79F $$ ANZ330-335-338-340-345-350-353-355-230400- COASTAL MARINE OBSERVATIONS STATION/POSITION TIME SKY/WX TEMP WIND PRES VSBY WAVE AIR SEA DIR/SP/G HT/PER (UTC) (F) (DEG/KT/KT) (MB) (MI) (FT/S) NY HARB ENTRANCE 0150 75 77 180/ 10/ 12 1007.8 2/ 8 20 S FIRE ISLAND 0250 77 78 160/ 2/ 4 1007.3 2/ 9 GREAT SOUTH BAY 0215 79 83 150/ 6/ 8 N/A 23 SSW MONTAUK P 0150 77 77 1009.0 2/ 6 15 E BARNEGAT LI 0230 79 N/A 3/ 6 HUDSON CANYON 0150 80 81 200/ 2/ 4 1007.8 3/ 6 KINGS POINT 0230 77 73 190/ 5/ 5 1007.9 EXECUTION ROCKS 0245 78 90/ 4/ 6 N/A CENTRAL LI SOUND NOT AVBL EASTERN LI SOUND NOT AVBL ROBBINS REEF 0236 170/ 10/ 11 1008.1 $$ >>>>>>>>>>>>>>>>>>>>>>>>>>>> KEY <<<<<<<<<<<<<<<<<<<<<<<<<<< > < > SKY/WX - Sky Condition/Present Weather < > TMP - Temperature in Fahrenheit < > DP - Dew Point in Fahrenheit < > RH - Relative Humidity in Percent < > WIND - Direction (from) and Speed in MPH < > PRES - Mean Sea Level Pressure (inches of Hg) < > WCI - Wind Chill Index < > VSB - VISIBILITY IN MILES < > HX - HEAT INDEX < > TC - TEMPERATURE IN CELSIUS < > VRB - VARIABLE WIND DIRECTION < > < >>>>>>>>>>>>>>>>>>>>>>>>>>>> KEY <<<<<<<<<<<<<<<<<<<<<<<<<<<

USA.gov is the U.S. government's official web portal to all federal, state and local government web resources and services.